| time (UTC) | temp F | wind direction | speed knots | gust knots | rain 1hr in | rain 24hr in | rain mn in | humidity % | barometer mb |
| 20260905052707 | 54 | 249 | 0.0 | 2.6 | 0.00 | 0.03 | 0.00 | 89 | 1020.8 |
| 20260905052013 | 54 | 248 | 0.0 | 1.7 | 0.00 | 0.03 | 0.00 | 89 | 1020.7 |
| 20260905050905 | 54 | 248 | 0.0 | 2.6 | 0.00 | 0.03 | 0.00 | 89 | 1020.7 |
| 20260905050003 | 54 | 248 | 0.0 | 2.6 | 0.00 | 0.03 | 0.00 | 89 | 1020.6 |
| 20260905045405 | 54 | 248 | 0.0 | 2.6 | 0.00 | 0.03 | 0.00 | 89 | 1020.5 |
| 20260905044505 | 54 | 244 | 0.0 | 1.7 | 0.00 | 0.03 | 0.00 | 89 | 1020.2 |
| 20260905043605 | 54 | 250 | 0.0 | 2.6 | 0.00 | 0.03 | 0.00 | 88 | 1020.2 |
| 20260905042703 | 54 | 260 | 0.0 | 2.6 | 0.00 | 0.03 | 0.00 | 88 | 1020.2 |
| 20260905041805 | 54 | 253 | 0.0 | 3.5 | 0.00 | 0.03 | 0.00 | 88 | 1020.1 |
| 20260905040905 | 54 | 214 | 0.0 | 2.6 | 0.00 | 0.03 | 0.00 | 88 | 1020.2 |
| 20260905040004 | 55 | 214 | 0.0 | 1.7 | 0.00 | 0.03 | 0.00 | 88 | 1020.2 |
| 20260905035403 | 55 | 214 | 0.0 | 2.6 | 0.00 | 0.03 | 0.00 | 88 | 1020.1 |
| 20260905034503 | 55 | 214 | 0.0 | 2.6 | 0.00 | 0.03 | 0.00 | 88 | 1019.9 |
| 20260905033605 | 55 | 214 | 0.0 | 1.7 | 0.00 | 0.03 | 0.00 | 88 | 1019.9 |
| 20260905032703 | 55 | 195 | 0.0 | 2.6 | 0.00 | 0.03 | 0.00 | 88 | 1019.8 |
| 20260905031805 | 55 | 162 | 0.0 | 1.7 | 0.00 | 0.03 | 0.00 | 87 | 1019.7 |
| 20260905030903 | 55 | 161 | 0.0 | 1.7 | 0.00 | 0.03 | 0.00 | 87 | 1019.6 |
| 20260905030214 | 55 | 177 | 0.0 | 3.5 | 0.00 | 0.03 | 0.00 | 87 | 1019.5 |
| 20260905025403 | 55 | 192 | 0.0 | 4.3 | 0.00 | 0.03 | 0.00 | 87 | 1019.4 |
| 20260905024505 | 55 | 197 | 0.0 | 2.6 | 0.00 | 0.03 | 0.00 | 87 | 1019.4 |
| 20260905023603 | 55 | 241 | 0.0 | 3.5 | 0.00 | 0.03 | 0.00 | 87 | 1019.3 |
| 20260905022703 | 55 | 240 | 0.0 | 2.6 | 0.00 | 0.03 | 0.00 | 87 | 1019.2 |
| 20260905021803 | 56 | 235 | 0.0 | 2.6 | 0.00 | 0.03 | 0.00 | 87 | 1019.2 |
| 20260905020905 | 56 | 215 | 0.0 | 0.9 | 0.00 | 0.03 | 0.00 | 87 | 1019.1 |
| 20260905020005 | 56 | 218 | 0.0 | 1.7 | 0.00 | 0.03 | 0.00 | 86 | 1019.1 |
| 20260905015406 | 56 | 218 | 0.0 | 1.7 | 0.00 | 0.03 | 0.00 | 86 | 1019.0 |
| 20260905014503 | 56 | 218 | 0.0 | 1.7 | 0.00 | 0.03 | 0.00 | 86 | 1019.0 |
| 20260905013605 | 56 | 216 | 0.0 | 2.6 | 0.00 | 0.03 | 0.00 | 86 | 1019.0 |
| 20260905012703 | 56 | 233 | 0.0 | 3.5 | 0.00 | 0.03 | 0.00 | 86 | 1018.9 |
| 20260905011805 | 56 | 235 | 0.0 | 1.7 | 0.00 | 0.03 | 0.00 | 85 | 1018.9 |
| 20260905010906 | 56 | 238 | 0.0 | 2.6 | 0.00 | 0.03 | 0.00 | 85 | 1018.9 |
| 20260905010004 | 56 | 238 | 0.0 | 1.7 | 0.00 | 0.03 | 0.00 | 85 | 1018.9 |
| 20260905005617 | 56 | 238 | 0.0 | 1.7 | 0.00 | 0.03 | 0.00 | 84 | 1018.9 |
| 20260905004503 | 56 | 238 | 0.0 | 2.6 | 0.00 | 0.03 | 0.00 | 84 | 1018.9 |
| 20260905003605 | 56 | 238 | 0.0 | 1.7 | 0.00 | 0.03 | 0.00 | 84 | 1018.9 |
| 20260905002703 | 56 | 237 | 0.0 | 2.6 | 0.00 | 0.03 | 0.00 | 84 | 1018.8 |
| 20260905001805 | 56 | 237 | 0.0 | 2.6 | 0.00 | 0.03 | 0.00 | 84 | 1018.8 |
| 20260905000905 | 56 | 237 | 0.0 | 2.6 | 0.00 | 0.03 | 0.00 | 83 | 1018.7 |
| 20260904235406 | 57 | 247 | 0.0 | 1.7 | 0.00 | 0.03 | 0.00 | 83 | 1018.6 |
| 20260904234507 | 57 | 247 | 0.0 | 1.7 | 0.00 | 0.03 | 0.00 | 83 | 1018.7 |
| 20260904233817 | 57 | 247 | 0.0 | 2.6 | 0.00 | 0.03 | 0.00 | 82 | 1018.6 |
| 20260904232706 | 57 | 250 | 0.0 | 3.5 | 0.00 | 0.03 | 0.00 | 82 | 1018.6 |
| 20260904231805 | 57 | 252 | 0.0 | 1.7 | 0.00 | 0.03 | 0.00 | 81 | 1018.6 |
| 20260904230906 | 58 | 252 | 0.0 | 3.5 | 0.00 | 0.03 | 0.00 | 81 | 1018.4 |
| 20260904230007 | 58 | 251 | 0.9 | 3.5 | 0.00 | 0.03 | 0.00 | 81 | 1018.3 |
| 20260904225618 | 58 | 250 | 0.0 | 1.7 | 0.00 | 0.03 | 0.03 | 81 | 1018.3 |
| 20260904224506 | 58 | 262 | 0.0 | 2.6 | 0.00 | 0.03 | 0.03 | 80 | 1018.2 |
| 20260904223605 | 58 | 262 | 0.0 | 2.6 | 0.00 | 0.03 | 0.03 | 80 | 1018.3 |
| 20260904222705 | 58 | 261 | 0.0 | 1.7 | 0.00 | 0.03 | 0.03 | 80 | 1018.2 |
| 20260904222017 | 58 | 233 | 0.9 | 3.5 | 0.00 | 0.03 | 0.03 | 79 | 1018.2 |
| 20260904220003 | 59 | 221 | 0.9 | 1.7 | 0.00 | 0.03 | 0.03 | 78 | 1018.1 |
| 20260904214505 | 60 | 243 | 0.0 | 2.6 | 0.00 | 0.03 | 0.03 | 77 | 1018.1 |
| 20260904213608 | 60 | 244 | 0.0 | 2.6 | 0.00 | 0.03 | 0.03 | 77 | 1018.0 |
| 20260904212705 | 60 | 241 | 0.0 | 2.6 | 0.00 | 0.03 | 0.03 | 77 | 1018.0 |
| 20260904211804 | 60 | 239 | 0.0 | 1.7 | 0.00 | 0.03 | 0.03 | 76 | 1017.9 |
| 20260904210904 | 61 | 237 | 0.0 | 1.7 | 0.00 | 0.03 | 0.03 | 76 | 1017.8 |
| 20260904210218 | 61 | 236 | 0.0 | 1.7 | 0.00 | 0.03 | 0.03 | 76 | 1017.7 |
| 20260904205403 | 61 | 234 | 0.0 | 2.6 | 0.00 | 0.03 | 0.03 | 76 | 1017.8 |
| 20260904204717 | 61 | 245 | 0.0 | 1.7 | 0.00 | 0.03 | 0.03 | 76 | 1017.7 |
| 20260904203605 | 62 | 251 | 0.9 | 2.6 | 0.00 | 0.03 | 0.03 | 75 | 1017.8 |
| 20260904202916 | 62 | 246 | 0.9 | 3.5 | 0.00 | 0.03 | 0.03 | 75 | 1017.7 |
| 20260904201805 | 62 | 240 | 0.0 | 1.7 | 0.00 | 0.03 | 0.03 | 74 | 1017.7 |
| 20260904200905 | 62 | 239 | 0.0 | 1.7 | 0.00 | 0.03 | 0.03 | 73 | 1017.6 |
| 20260904200005 | 63 | 238 | 0.0 | 1.7 | 0.00 | 0.03 | 0.03 | 72 | 1017.7 |
| 20260904195403 | 63 | 238 | 0.0 | 2.6 | 0.00 | 0.03 | 0.03 | 72 | 1017.6 |
| 20260904194505 | 63 | 240 | 0.9 | 4.3 | 0.00 | 0.03 | 0.03 | 71 | 1017.4 |
| 20260904193605 | 64 | 246 | 0.9 | 3.5 | 0.00 | 0.03 | 0.03 | 70 | 1017.2 |
| 20260904192705 | 64 | 231 | 0.9 | 4.3 | 0.00 | 0.03 | 0.03 | 70 | 1016.9 |
| 20260904191806 | 64 | 232 | 0.9 | 2.6 | 0.00 | 0.03 | 0.03 | 69 | 1016.8 |
| 20260904190003 | 65 | 249 | 0.9 | 6.1 | 0.00 | 0.03 | 0.03 | 67 | 1016.4 |
| 20260904185408 | 65 | 241 | 0.9 | 2.6 | 0.00 | 0.03 | 0.03 | 66 | 1016.2 |
| 20260904183815 | 65 | 249 | 0.9 | 3.5 | 0.00 | 0.03 | 0.03 | 64 | 1015.8 |
| 20260904182933 | 65 | 251 | 0.9 | 4.3 | 0.00 | 0.03 | 0.03 | 64 | 1015.8 |
| 20260904181805 | 65 | 268 | 0.9 | 3.5 | 0.00 | 0.03 | 0.03 | 64 | 1015.7 |
| 20260904180906 | 66 | 241 | 0.9 | 2.6 | 0.00 | 0.03 | 0.03 | 63 | 1015.6 |
| 20260904180008 | 66 | 245 | 0.9 | 6.1 | 0.00 | 0.03 | 0.03 | 63 | 1015.5 |
| 20260904175403 | 66 | 242 | 1.7 | 7.8 | 0.00 | 0.03 | 0.03 | 63 | 1015.4 |
| 20260904174507 | 66 | 238 | 0.9 | 5.2 | 0.00 | 0.03 | 0.03 | 63 | 1015.3 |
| 20260904173821 | 66 | 239 | 0.9 | 6.1 | 0.00 | 0.03 | 0.03 | 64 | 1015.3 |
| 20260904172708 | 66 | 252 | 1.7 | 5.2 | 0.00 | 0.03 | 0.03 | 63 | 1015.1 |
| 20260904171805 | 67 | 237 | 1.7 | 5.2 | 0.00 | 0.03 | 0.03 | 63 | 1015.1 |
| 20260904170905 | 67 | 239 | 0.9 | 6.1 | 0.00 | 0.03 | 0.03 | 62 | 1015.1 |
| 20260904170008 | 67 | 199 | 0.9 | 6.1 | 0.00 | 0.03 | 0.03 | 62 | 1015.2 |
| 20260904165617 | 67 | 230 | 1.7 | 6.1 | 0.00 | 0.03 | 0.03 | 62 | 1015.1 |
| 20260904164508 | 67 | 240 | 1.7 | 6.1 | 0.00 | 0.03 | 0.03 | 61 | 1015.1 |
| 20260904163817 | 67 | 244 | 0.9 | 5.2 | 0.00 | 0.03 | 0.03 | 61 | 1014.9 |
| 20260904162703 | 68 | 231 | 0.9 | 6.1 | 0.00 | 0.03 | 0.03 | 60 | 1014.8 |
| 20260904161805 | 68 | 264 | 0.9 | 6.1 | 0.00 | 0.03 | 0.03 | 60 | 1014.7 |
| 20260904160905 | 68 | 240 | 1.7 | 7.8 | 0.00 | 0.03 | 0.03 | 60 | 1014.4 |
| 20260904160004 | 68 | 207 | 0.9 | 4.3 | 0.00 | 0.03 | 0.03 | 60 | 1014.5 |
| 20260904155403 | 68 | 254 | 1.7 | 7.0 | 0.00 | 0.03 | 0.03 | 59 | 1014.4 |
| 20260904154503 | 69 | 235 | 1.7 | 7.0 | 0.00 | 0.03 | 0.03 | 59 | 1014.5 |
| 20260904153605 | 69 | 237 | 1.7 | 7.0 | 0.00 | 0.03 | 0.03 | 59 | 1014.5 |
| 20260904152914 | 69 | 247 | 1.7 | 5.2 | 0.00 | 0.03 | 0.03 | 59 | 1014.7 |
| 20260904151806 | 69 | 244 | 1.7 | 7.8 | 0.00 | 0.03 | 0.03 | 59 | 1014.5 |
| 20260904151114 | 69 | 245 | 1.7 | 7.0 | 0.00 | 0.03 | 0.03 | 59 | 1014.5 |
| 20260904150216 | 69 | 245 | 1.7 | 8.7 | 0.00 | 0.03 | 0.03 | 59 | 1014.3 |
| 20260904145618 | 69 | 249 | 1.7 | 6.1 | 0.00 | 0.03 | 0.03 | 59 | 1014.4 |
| 20260904144504 | 68 | 256 | 1.7 | 7.0 | 0.00 | 0.03 | 0.03 | 59 | 1014.2 |
| 20260904143605 | 68 | 269 | 1.7 | 5.2 | 0.00 | 0.03 | 0.03 | 59 | 1014.2 |
| 20260904142705 | 68 | 267 | 1.7 | 7.0 | 0.00 | 0.03 | 0.03 | 59 | 1014.1 |
| 20260904141805 | 69 | 254 | 1.7 | 6.1 | 0.00 | 0.03 | 0.03 | 60 | 1014.1 |
| 20260904140905 | 69 | 243 | 0.9 | 7.0 | 0.00 | 0.03 | 0.03 | 59 | 1014.1 |
| 20260904140005 | 69 | 252 | 1.7 | 6.1 | 0.00 | 0.03 | 0.03 | 60 | 1014.3 |
| 20260904135405 | 69 | 260 | 1.7 | 7.0 | 0.00 | 0.03 | 0.03 | 60 | 1014.3 |
| 20260904134503 | 69 | 246 | 1.7 | 8.7 | 0.00 | 0.03 | 0.03 | 60 | 1013.9 |
| 20260904133813 | 69 | 250 | 1.7 | 8.7 | 0.00 | 0.03 | 0.03 | 61 | 1014.0 |
| 20260904132916 | 70 | 271 | 1.7 | 8.7 | 0.00 | 0.03 | 0.03 | 63 | 1014.1 |
| 20260904131803 | 70 | 256 | 1.7 | 7.0 | 0.00 | 0.03 | 0.03 | 63 | 1013.9 |
| 20260904131115 | 70 | 280 | 1.7 | 5.2 | 0.00 | 0.03 | 0.03 | 62 | 1014.1 |
| 20260904130004 | 70 | 261 | 1.7 | 7.8 | 0.00 | 0.03 | 0.03 | 63 | 1013.9 |
| 20260904125405 | 70 | 249 | 1.7 | 6.1 | 0.00 | 0.03 | 0.03 | 64 | 1013.7 |
| 20260904124506 | 70 | 241 | 1.7 | 8.7 | 0.00 | 0.03 | 0.03 | 64 | 1013.2 |
| 20260904123603 | 70 | 257 | 1.7 | 8.7 | 0.00 | 0.03 | 0.03 | 65 | 1013.3 |
| 20260904122703 | 70 | 243 | 1.7 | 8.7 | 0.00 | 0.03 | 0.03 | 64 | 1013.3 |
| 20260904122013 | 70 | 245 | 1.7 | 6.1 | 0.00 | 0.03 | 0.03 | 65 | 1013.3 |
| 20260904120904 | 71 | 254 | 1.7 | 6.1 | 0.00 | 0.03 | 0.03 | 66 | 1013.1 |
| 20260904120218 | 70 | 249 | 1.7 | 6.1 | 0.00 | 0.03 | 0.03 | 66 | 1013.1 |
| 20260904115406 | 70 | 253 | 1.7 | 7.0 | 0.00 | 0.03 | 0.03 | 67 | 1012.7 |
| 20260904114505 | 70 | 253 | 1.7 | 7.8 | 0.00 | 0.03 | 0.03 | 67 | 1013.0 |
| 20260904113606 | 70 | 261 | 1.7 | 6.1 | 0.00 | 0.03 | 0.03 | 69 | 1012.7 |
| 20260904112705 | 70 | 302 | 1.7 | 4.3 | 0.00 | 0.03 | 0.03 | 69 | 1012.5 |
| 20260904111805 | 70 | 293 | 1.7 | 7.8 | 0.00 | 0.03 | 0.03 | 68 | 1012.4 |
| 20260904110904 | 70 | 271 | 1.7 | 7.8 | 0.00 | 0.03 | 0.03 | 69 | 1012.4 |
| 20260904110005 | 70 | 255 | 1.7 | 4.3 | 0.00 | 0.03 | 0.03 | 71 | 1012.3 |
| 20260904105403 | 70 | 256 | 2.6 | 7.8 | 0.00 | 0.03 | 0.03 | 73 | 1012.4 |
| 20260904104718 | 70 | 249 | 1.7 | 7.8 | 0.00 | 0.03 | 0.03 | 74 | 1012.6 |
| 20260904103603 | 70 | 245 | 1.7 | 7.8 | 0.00 | 0.03 | 0.03 | 75 | 1012.3 |
| 20260904102703 | 70 | 252 | 1.7 | 8.7 | 0.00 | 0.03 | 0.03 | 75 | 1012.2 |
| 20260904101805 | 69 | 247 | 1.7 | 7.8 | 0.00 | 0.03 | 0.03 | 78 | 1012.1 |
| 20260904100906 | 69 | 260 | 2.6 | 7.0 | 0.00 | 0.03 | 0.03 | 79 | 1012.0 |
| 20260904100004 | 68 | 260 | 1.7 | 7.0 | 0.00 | 0.03 | 0.03 | 82 | 1011.9 |
| 20260904095616 | 68 | 252 | 0.9 | 7.0 | 0.00 | 0.03 | 0.03 | 82 | 1012.0 |
| 20260904094503 | 68 | 246 | 1.7 | 6.1 | 0.00 | 0.03 | 0.03 | 84 | 1011.7 |
| 20260904093606 | 67 | 261 | 0.9 | 3.5 | 0.00 | 0.03 | 0.03 | 86 | 1011.7 |
| 20260904092705 | 67 | 252 | 0.9 | 6.1 | 0.00 | 0.03 | 0.03 | 88 | 1011.8 |
| 20260904091803 | 66 | 209 | 0.9 | 4.3 | 0.00 | 0.03 | 0.03 | 88 | 1011.9 |
| 20260904090905 | 66 | 252 | 0.9 | 6.1 | 0.00 | 0.03 | 0.03 | 89 | 1011.6 |
| 20260904090005 | 66 | 227 | 0.9 | 3.5 | 0.03 | 0.03 | 0.03 | 89 | 1011.7 |
| 20260904085617 | 66 | 229 | 0.9 | 6.1 | 0.03 | 0.03 | 0.03 | 89 | 1011.7 |
| 20260904084719 | 66 | 249 | 1.7 | 5.2 | 0.03 | 0.03 | 0.03 | 89 | 1011.5 |
| 20260904083605 | 67 | 202 | 0.9 | 6.1 | 0.03 | 0.03 | 0.03 | 90 | 1011.3 |
| 20260904082914 | 67 | 241 | 1.7 | 6.1 | 0.03 | 0.03 | 0.03 | 91 | 1011.4 |
| 20260904081803 | 67 | 253 | 2.6 | 7.8 | 0.03 | 0.03 | 0.03 | 89 | 1011.0 |
| 20260904081113 | 68 | 253 | 2.6 | 7.8 | 0.03 | 0.03 | 0.03 | 89 | 1010.7 |
| 20260904080003 | 69 | 243 | 2.6 | 9.6 | 0.00 | 0.00 | 0.00 | 87 | 1010.2 |
| 20260904075406 | 69 | 221 | 3.5 | 10.4 | 0.00 | 0.00 | 0.00 | 87 | 1010.1 |
| 20260904074504 | 70 | 234 | 3.5 | 12.2 | 0.00 | 0.00 | 0.00 | 84 | 1010.0 |
| 20260904073603 | 70 | 240 | 3.5 | 11.3 | 0.00 | 0.00 | 0.00 | 83 | 1009.9 |
| 20260904072703 | 70 | 230 | 3.5 | 12.2 | 0.00 | 0.00 | 0.00 | 83 | 1009.8 |
| 20260904071804 | 70 | 233 | 3.5 | 12.2 | 0.00 | 0.00 | 0.00 | 82 | 1009.7 |
| 20260904070905 | 70 | 225 | 2.6 | 10.4 | 0.00 | 0.00 | 0.00 | 82 | 1009.7 |
| 20260904070005 | 70 | 223 | 2.6 | 10.4 | 0.00 | 0.00 | 0.00 | 83 | 1009.6 |
| 20260904065403 | 70 | 225 | 3.5 | 10.4 | 0.00 | 0.00 | 0.00 | 83 | 1009.6 |
| 20260904064505 | 69 | 231 | 2.6 | 10.4 | 0.00 | 0.00 | 0.00 | 83 | 1009.6 |
| 20260904063606 | 69 | 217 | 3.5 | 10.4 | 0.00 | 0.00 | 0.00 | 83 | 1009.7 |
| 20260904062706 | 69 | 188 | 2.6 | 8.7 | 0.00 | 0.00 | 0.00 | 84 | 1009.7 |
| 20260904061806 | 69 | 223 | 2.6 | 10.4 | 0.00 | 0.00 | 0.00 | 84 | 1009.8 |
| 20260904060905 | 69 | 232 | 3.5 | 12.2 | 0.00 | 0.00 | 0.00 | 85 | 1010.2 |
| 20260904060003 | 68 | 209 | 3.5 | 13.9 | 0.00 | 0.00 | 0.00 | 85 | 1010.4 |
| 20260904055403 | 68 | 203 | 2.6 | 13.9 | 0.00 | 0.00 | 0.00 | 86 | 1010.2 |
| 20260904054503 | 68 | 247 | 3.5 | 12.2 | 0.00 | 0.00 | 0.00 | 86 | 1010.2 |
| 20260904053813 | 68 | 234 | 2.6 | 12.2 | 0.00 | 0.00 | 0.00 | 86 | 1010.1 |